Volver al catálogo

CZ-6A DEB

ActivoPO
NORAD 61475·DEBRIS·🇨🇳 China

Lanzado Aug 6, 2024 desde Taiyuan Satellite Launch Center

Loading…

Próximos Pases (próximas 24 horas)

TLE

ActualizadoSource: Space-Track

Época: Sep 13, 2026, 08:37 UTC

1 61475U 24140AAH 26256.35932389  .00000249  00000-0  25639-3 0  9990
2 61475  88.3864 227.2023 0433102 200.3277 158.0161 13.38872768 98882

Sigue CZ-6A DEB en tiempo real con AllMySat

Download on the App Store